Miscellaneous Local Product
Issued by NWS North Platte, NE

Home | Current Version | Previous Version | Text Only | Print | Product List | Glossary On
Versions: 1 2 3 4 5 6 7 8 9 10 11 12 13 14 15 16 17 18 19 20 21 22 23 24 25 26 27 28 29 30 31 32 33 34 35 36 37 38 39 40 41 42 43 44 45 46 47 48 49 50
805
AXUS43 KLBF 052210
MISLBF


WESTERN AND NORTH CENTRAL NEBRASKA HOURLY WEATHER ROUNDUP
NATIONAL WEATHER SERVICE NORTH PLATTE NE
400 PM CST FRI FEB 05 2016

NOTE: "FAIR" INDICATES FEW OR NO CLOUDS BELOW 12,000 FEET WITH NO
SIGNIFICANT WEATHER AND/OR OBSTRUCTIONS TO VISIBILITY.

NOTE: STATIONS NOT REPORTING VARIABLES SUCH AS SKY/WEATHER OR
PRESSURE ARE PROVIDED BY THE NEBRASKA DEPARTMENT OF
ROADS...RAWS...AND APRS NETWORKS...AND ARE NOT UNDER
NATIONAL WEATHER SERVICE QUALITY CONTROL.

...OBSERVATIONS IN AND NEAR THE EASTERN PANHANDLE OF NEBRASKA...

CITY           SKY/WX    TMP DP  RH WIND       PRES   REMARKS
PINE RIDGE     SUNNY     39  25  57 NW9       30.22S WCI  33
CHADRON        SUNNY     37  25  61 W21       30.23S WCI  26
ALLIANCE       SUNNY     33  22  63 NW18      30.22R WCI  22
SIDNEY         SUNNY     30  21  69 NW18      30.25R WCI  18
CRESCENT LAKE    N/A     36  24  61 NW13G20     N/A  WCI  27
BIG SPRINGS      N/A     35  26  69 NW8         N/A  WCI  28
$$

...OBSERVATIONS IN NORTH CENTRAL NEBRASKA...

CITY           SKY/WX    TMP DP  RH WIND       PRES   REMARKS
VALENTINE      CLOUDY    34  26  72 NW16G24   30.21R WCI  24
THEDFORD       CLOUDY    36  26  66 NW18      30.21R WCI  25
AINSWORTH      CLOUDY    34  26  74 NW15G24   30.20R WCI  24
O`NEILL        LGT SNOW  35  32  90 NW14      30.18R WCI  25
ORD            CLOUDY    37  28  70 NW12      30.18R WCI  29
BROKEN BOW     CLOUDY    37  26  64 NW18      30.19R WCI  27
VALENTINE NWR    N/A     33  23  68 NW16G23     N/A  WCI  22
BUTTE            N/A     34  30  86 NW12G20     N/A  WCI  25
HALSEY           N/A     35  25  66 NW10G21     N/A  WCI  27
CHAMBERS         N/A     37  29  72 W13         N/A  WCI  29
EWING            N/A     36  31  83 NW8G15      N/A  WCI  30
$$

...OBSERVATIONS IN SOUTHWEST NEBRASKA AND FAR NORTHEAST COLORADO...

CITY           SKY/WX    TMP DP  RH WIND       PRES   REMARKS
WRAY           FAIR      37  23  55 NW21G26   30.25S WCI  27
HOLYOKE        FAIR      37  23  56 NW12G20   30.25R WCI  30
IMPERIAL       SUNNY     36  23  59 NW16      30.24R WCI  26
OGALLALA       SUNNY     35  22  61 NW13      30.24S WCI  26
NORTH PLATTE   PTSUNNY   36  26  67 NW13      30.22R WCI  27
MCCOOK         SUNNY     36  25  64 NW13      30.24R WCI  27
LEXINGTON      PTSUNNY   38  28  68 NW13      30.22R WCI  30
PAXTON           N/A     37  30  77 W10         N/A  WCI  30
STAPLETON        N/A     35  27  71 CALM        N/A
GOTHENBURG       N/A     37  28  70 NW8         N/A  WCI  31
CALLAWAY         N/A     35  28  76 NW12        N/A  WCI  27
$$

...OBSERVATIONS IN CENTRAL LINCOLN COUNTY AREA...

CITY           SKY/WX    TMP DP  RH WIND       PRES   REMARKS
N.P. AIRPORT   PTSUNNY   36  26  67 NW13      30.22R WCI  27
N.P. DOWNTOWN    N/A     37  28  70 NW9G16      N/A  WCI  30
N.P. SOUTHEAST   N/A     38  28  66 NW8         N/A  WCI  32
N.P. HILLCREST   N/A     36  28  73 NW12G20     N/A  WCI  28
$$

...SOME OBSERVATIONS FROM AROUND THE REGION...

CITY           SKY/WX    TMP DP  RH WIND       PRES   REMARKS
DENVER         MOSUNNY   33  13  43 NE7       30.26S WCI  27
LARAMIE        SUNNY     25  13  60 NE10      30.21F WCI  15
CHEYENNE       SUNNY     31  12  45 N20       30.22R WCI  19
SCOTTSBLUFF    SUNNY     34  18  52 W16       30.26S WCI  24
RAPID CITY     SUNNY     41  22  46 N14       30.18F
BISMARCK       SUNNY     43  24  47 W15       30.13F
PIERRE         SUNNY     40  25  55 NW12      30.18S WCI  33
WINNER         CLOUDY    36  30  79 NW13      30.20S WCI  27
SIOUX FALLS    CLOUDY    30  25  81 SW6       30.16R WCI  24
OMAHA          LGT SNOW  31  27  85 S12       30.24F FOG     WCI  22
GRAND ISLAND   CLOUDY    37  29  72 W8        30.20R WCI  31
KANSAS CITY    CLOUDY    40  22  48 S7        30.29F
WICHITA        PTSUNNY   52  26  36 S9        30.24S
OKLAHOMA CITY  CLOUDY    54  24  31 S13       30.22F
LIBERAL        PTSUNNY   45  21  39 N24G31    30.25S
HAYS           SUNNY     37  25  60 W13       30.25F WCI  29
GOODLAND       SUNNY     36  21  54 NW17      30.25S WCI  26
$$




USA.gov is the U.S. government's official web portal to all federal, state and local government web resources and services.